This demonstration page uses our WeatherBlox Daily Observations layout. Learn more.

Left ArrowRight Arrow

41.55636, -103.73856

Hourly Observations for November 9, 2019

Temp ( °F °C ) Dew Point ( °F °C ) Humidity (%) Winds ( mph kmh ) Pressure ( in mb ) Visibility ( mi km ) Precip ( " mm )
12:58 am 00:58 Clear 48 8.8 22 -5.7 36 36 WSW 6 9 30.23 1024 10 16.0934 N/A
1:58 am 01:58 Clear 46 7.8 22 -5.8 38 38 SW 7 11 30.24 1024 10 16.0934 N/A
2:58 am 02:58 Clear 45 7 22 -5.8 40 40 WSW 6 9 30.23 1024 10 16.0934 N/A
3:58 am 03:58 Clear 43 6.1 22 -5.6 43 43 W 7 11 30.21 1023 10 16.0934 N/A
4:58 am 04:58 Clear 43 6.3 21 -5.9 42 42 WSW 5 7 30.19 1023 10 16.0934 N/A
5:58 am 05:58 Clear 40 4.2 22 -5.7 49 49 WSW 8 13 30.17 1022 10 16.0934 N/A
6:58 am 06:58 Clear 44 6.9 22 -5.7 41 41 WNW 17 28 30.14 1021 10 16.0934 N/A
7:58 am 07:58 Clear 45 7 21 -6.1 39 39 WNW 13 20 30.12 1020 10 16.0934 N/A
8:58 am 08:58 Clear 41 5.2 20 -6.4 43 43 SSW 8 13 30.12 1020 10 16.0934 N/A
9:58 am 09:58 Clear 40 4.6 22 -5.6 48 48 SSW 12 19 30.11 1020 10 16.0934 N/A
10:58 am 10:58 Clear 39 3.9 21 -6 49 49 SSW 12 19 30.1 1019 10 16.0934 N/A
11:58 am 11:58 Clear 40 4.2 20 -6.4 46 46 SSW 13 20 30.11 1020 10 16.0934 N/A
12:58 pm 12:58 Clear 38 3.6 20 -6.6 48 48 SSW 13 20 30.13 1020 10 16.0934 N/A
1:58 pm 13:58 Sunny 40 4.3 20 -6.8 45 45 SSW 13 20 30.12 1020 10 16.0934 N/A
2:58 pm 14:58 Sunny 47 8.6 20 -6.5 34 34 SSW 10 17 30.08 1019 10 16.0934 N/A
3:58 pm 15:58 Sunny 56 13.6 19 -7.3 23 23 SW 14 22 30.05 1018 10 16.0934 N/A
4:58 pm 16:58 Sunny 62 16.9 13 -10.7 14 14 W 14 22 30.03 1017 10 16.0934 N/A
5:58 pm 17:58 Sunny 64 17.7 13 -10.8 13 13 WNW 14 22 30.03 1017 10 16.0934 N/A
6:58 pm 18:58 Sunny 69 20.3 12 -11.2 11 11 NW 24 39 29.97 1015 10 16.0934 N/A
7:58 pm 19:58 Sunny 69 20.8 12 -11 11 11 NW 30 48 29.96 1015 10 16.0934 N/A
8:58 pm 20:58 Sunny 69 20.5 13 -10.6 11 11 NNW 22 35 29.97 1015 10 16.0934 N/A
9:58 pm 21:58 Sunny 68 20.2 13 -10.8 11 11 NNW 17 28 29.97 1015 10 16.0934 N/A
10:58 pm 22:58 Sunny 65 18.6 14 -10.1 13 13 NNW 5 7 29.98 1015 10 16.0934 N/A
11:58 pm 23:58 Clear 60 15.3 14 -9.8 17 17 NW 9 15 30.01 1016 10 16.0934 N/A

Powered by AerisWeather